Torna al catalogo

STARLINK-11451

AttivoComunicazioniVLEO
NORAD 62561·PAYLOAD·🇺🇸 United States

Lanciato Jan 10, 2025 da Cape Canaveral Space Force Station

Loading…

Prossimi Passaggi (prossime 24 ore)

TLE

AggiornatoSource: CelesTrak SupGP

Epoca: Sep 15, 2026, 03:38 UTC

1 62561C 25006H   26258.15187500 -.00018993  00000+0 -14740-3 0  2581
2 62561  43.0008  77.6618 0001786 272.9040  38.9222 15.70865289    16

Traccia STARLINK-11451 in tempo reale con AllMySat

Download on the App Store